This demonstration page uses our WeatherBlox Daily Observations layout. Learn more.

Left ArrowRight Arrow

Hourly Observations for June 2, 2018

Temp ( °F °C ) Dew Point ( °F °C ) Humidity (%) Winds ( mph kmh ) Pressure ( in mb ) Visibility ( mi km ) Precip ( " mm )
12:05 am 00:05 Partly Cloudy 73 23 63 17 69 69 N 29 46 29.74 1007 10 16 0.00 0.00
12:13 am 00:13 Mostly Cloudy with Nearby Thunderstorms 69 20.6 57 13.9 66 66 NNE 20 31 29.71 1006 10 16 0.00 0.00
12:26 am 00:26 Cloudy with Thunderstorms 67 19.4 58 14.4 73 73 N 22 35 29.77 1008 10 16 0.00 0.00
12:35 am 00:35 Cloudy with Strong Thunderstorms 64 17.8 61 16.1 90 90 N 20 31 29.83 1010 2 3 0.16 4.06
12:44 am 00:44 Cloudy with Strong Thunderstorms 63 17 61 16 94 94 NNE 24 39 29.77 1008 1 1 0.00 0.00
12:53 am 00:53 Cloudy with Strong Thunderstorms 62 16.7 61 16.1 96 96 NNE 14 22 29.79 1009 1 2 0.68 17.27
1:03 am 01:03 Cloudy with Strong Thunderstorms 63 17.2 62 16.7 97 97 ENE 10 17 29.80 1009 3 5 0.11 2.79
1:12 am 01:12 Cloudy with Thunderstorms 63 17.2 63 17.2 100 100 E 9 15 29.83 1010 4 6 0.15 3.81
1:53 am 01:53 Windy with Storms Likely 62 16.7 62 16.7 100 100 E 26 43 29.78 1008 7 11 0.30 7.62
2:13 am 02:13 Mostly Cloudy with Nearby Thunderstorms 63 17 61 16 94 94 E 10 17 29.77 1008 10 16 0.00 0.00
2:29 am 02:29 Mostly Cloudy with Light Rain 63 17.2 61 16.1 93 93 VRB 6 9 29.77 1008 10 16 0.02 0.51
2:53 am 02:53 Mostly Clear 63 17.2 61 16.1 93 93 E 6 9 29.79 1009 10 16 0.02 0.51
3:11 am 03:11 Clear 63 17.2 60 15.6 90 90 NE 6 9 29.80 1009 10 16 0.00 0.00
3:53 am 03:53 Clear 63 17.2 61 16.1 93 93 N 5 7 29.83 1010 10 16 0.00 0.00
4:53 am 04:53 Clear 62 16.7 60 15.6 93 93 ESE 3 6 29.83 1010 10 16 0.00 0.00
5:41 am 05:41 Mostly Cloudy 62 16.7 61 16.1 96 96 WNW 12 19 29.91 1013 10 16 0.00 0.00
5:53 am 05:53 Cloudy 62 16.7 61 16.1 96 96 WNW 8 13 29.91 1013 10 16 0.00 0.00
6:11 am 06:11 Partly Cloudy 62 16.7 60 15.6 93 93 NW 10 17 29.94 1014 10 16 0.00 0.00
6:53 am 06:53 Sunny 62 16.7 60 15.6 93 93 NW 7 11 29.96 1015 10 16 0.00 0.00
7:53 am 07:53 Cloudy 63 17.2 56 13.3 78 78 NNW 18 30 30.01 1016 10 16 0.00 0.00
8:53 am 08:53 Partly Cloudy 65 18.3 56 13.3 73 73 NNW 22 35 30.04 1017 10 16 0.00 0.00
9:53 am 09:53 Sunny 66 18.9 54 12.2 65 65 NNW 21 33 30.05 1018 10 16 0.00 0.00
10:53 am 10:53 Sunny 69 20.6 54 12.2 59 59 NNW 24 39 30.05 1018 10 16 0.00 0.00
11:53 am 11:53 Sunny 71 21.7 55 12.8 57 57 N 22 35 30.07 1018 10 16 0.00 0.00
12:53 pm 12:53 Sunny 73 22.8 53 11.7 50 50 NNW 22 35 30.08 1019 10 16 0.00 0.00
1:53 pm 13:53 Mostly Sunny 74 23.3 54 12.2 50 50 NNW 17 28 30.08 1019 10 16 0.00 0.00
2:53 pm 14:53 Sunny 76 24.4 51 10.6 42 42 NNW 20 31 30.07 1018 10 16 0.00 0.00
3:53 pm 15:53 Sunny 77 25 50 10 39 39 NNW 17 28 30.07 1018 10 16 0.00 0.00
4:53 pm 16:53 Sunny 77 25 50 10 39 39 NNW 17 28 30.07 1018 10 16 0.00 0.00
5:53 pm 17:53 Sunny 77 25 49 9.4 37 37 NNW 14 22 30.07 1018 10 16 0.00 0.00
6:53 pm 18:53 Sunny 77 25 48 8.9 36 36 NNW 13 20 30.06 1018 10 16 0.00 0.00
7:53 pm 19:53 Sunny 75 23.9 50 10 41 41 N 8 13 30.08 1019 10 16 0.00 0.00
8:53 pm 20:53 Sunny 70 21.1 54 12.2 57 57 N 5 7 30.09 1019 10 16 0.00 0.00
9:53 pm 21:53 Clear 66 18.9 55 12.8 68 68 Calm 30.11 1020 10 16 0.00 0.00
10:53 pm 22:53 Clear 65 18.3 54 12.2 68 68 Calm 30.13 1020 10 16 0.00 0.00
11:53 pm 23:53 Clear 62 16.7 55 12.8 78 78 Calm 30.14 1021 10 16 0.00 0.00

Powered by AerisWeather